Flag for U.S.A. Weather past 2 weeks in Fairfax, Virginia, U.S.A.

52 °F

Drizzle. Low clouds.

Feels Like: 48 °F
Forecast: 53 / 61 °F
Wind: 10 mph from North

Location: Washington-Dulles International Airport

Current Time: Oct 4, 2015 at 5:48:32 AM

Latest Report: Oct 4, 2015 at 4:52 AM

Visibility: 3 mi

Pressure: 30.18 "Hg

Humidity: 97%

Dew point: 51 °F

Location of FairfaxLocation

Historic Weather in Fairfax — Graph


Fairfax temperature yesterday

Maximum temperature yesterday: 56 °F (at 4:52 PM)
Minimum temperature yesterday: 48 °F (at 3:52 AM)
Average temperature yesterday: 52 °F

Past Weeks' High & Low Weather Summary

High85 °F (Sep 19, 1:52 PM)100% (Sep 29, 11:52 PM)30.40 "Hg (Sep 29, 11:52 PM)
Low48 °F (Oct 3, 3:52 AM)32% (Sep 23, 4:52 PM)29.69 "Hg (Sep 30, 3:52 AM)
Average65 °F76%30.12 "Hg
* Reported Sep 19 3:52 AM — Oct 4 3:52 AM, Fairfax, Weather by CustomWeather, © 2015

Note: Actual official high and low records may vary slightly from our data, if they occured in-between our weather recording intervals... More about our weather records


Fairfax weather history for previous 24 hours

Time TempWeatherWind HumidityBarometerVisibility
3:52 AM
Sun, Oct 4
53 °FDrizzle. Overcast.12 mph93%30.19 "Hg3 mi
2:52 AM53 °FDrizzle. Overcast.12 mph93%30.19 "Hg4 mi
1:59 AM54 °FDrizzle. Low clouds.12 mph94%30.19 "Hg3 mi
12:52 AM54 °FDrizzle. Overcast.14 mph90%30.19 "Hg5 mi
10:52 PM
Sat, Oct 3
54 °FDrizzle. Overcast.15 mph93%30.19 "Hg10 mi
9:52 PM54 °FDrizzle. Overcast.18 mph93%30.19 "Hg10 mi
8:52 PM55 °FLight rain. Overcast.17 mph90%30.17 "Hg9 mi
7:52 PM55 °FOvercast.14 mph90%30.16 "Hg10 mi
6:52 PM55 °FDrizzle. Fog.14 mph93%30.15 "Hg3 mi
5:52 PM56 °FDrizzle. Overcast.16 mph90%30.13 "Hg8 mi
4:52 PM56 °FOvercast.14 mph90%30.13 "Hg9 mi
3:52 PM55 °FFog.12 mph93%30.12 "Hg3 mi
2:52 PM54 °FDrizzle. Fog.10 mph93%30.11 "Hg2 mi
1:52 PM54 °FDrizzle. Fog.12 mph93%30.12 "Hg2 mi
12:52 PM53 °FFog.14 mph93%30.13 "Hg2 mi
11:52 AM52 °FFog.10 mph93%30.13 "Hg2 mi
10:52 AM51 °FFog.13 mph92%30.12 "Hg2 mi
9:52 AM50 °FFog.13 mph93%30.12 "Hg6 mi
8:52 AM50 °FLight rain. Fog.10 mph89%30.12 "Hg6 mi
7:59 AM48 °FFog.9 mph94%30.12 "Hg6 mi
6:52 AM48 °FLight rain. Fog.10 mph93%30.10 "Hg6 mi
5:52 AM48 °FLight rain. Fog.12 mph93%30.09 "Hg5 mi
Weather by CustomWeather, © 2015

See weather overviewHow to use our weather pages